カタリナ彗星

P/2007 T6 ( Catalina )

English version
Home page
Updated on October 12, 2008

---------------------------------------------------------------------

・ プロフィール

発見日 2007年10月13日
発見光度 17.8等
発見者 Catalina Sky Survey

・ 軌道要素

The following orbital elements are taken from MPC 62582:

Epoch 2007 Aug. 8.0 TT = JDT 2454320.5
T 2007 Aug. 19.6616 TT                                  MPC
q   2.232191             (2000.0)            P               Q
n   0.1035928      Peri.  335.8671      +0.1699217      -0.9142018
a   4.490036       Node   102.6330      +0.9543284      +0.0595592
e   0.502857       Incl.   22.1506      +0.2457316      +0.4008587
P   9.51
From 283 observations 2007 Oct. 8-2008 Apr. 7, mean residual 0".8.

・ 星図

・ 光度変化

        m1 = 12.0 + 5 logΔ + 10.0 log r

---------------------------------------------------------------------

軌道要素はMPCのEphemerides and Orbital Elementsに掲載されたものです。
星図はステラナビゲータ Ver.8 (アストロアーツ) で作成したものです。
光度グラフはComet for Windowsで作成したものです。

---------------------------------------------------------------------

Copyright(C) Seiichi Yoshida (comet@aerith.net). All rights reserved.